Dubuque, IA

9:13 AM CST on November 21, 2019 (GMT -0600)
Dubuque Regional

Weather History for KDBQ - September, 2019

Change the Weather History Date:

Saturday, September 28, 2019

  Actual Average Record
Temperature  
Mean Temperature 56 °F 57 °F  
Max Temperature 62 °F 68 °F 91 °F (1952)
Min Temperature 50 °F 46 °F 29 °F (1942)
Degree Days  
Heating Degree Days 9 9  
Month to date heating degree days 46 133  
Since 1 July heating degree days 55 160  
Cooling Degree Days 0 1  
Month to date cooling degree days 86 60  
Year to date cooling degree days 659 636  
Growing Degree Days 6 (Base 50)    
Moisture  
Dew Point 56 °F    
Average Humidity 91    
Maximum Humidity 100    
Minimum Humidity 80    
Precipitation  
Precipitation 0.40 in 0.10 in 1.74 in (1972)
Month to date precipitation 12.74 3.27  
Year to date precipitation 43.87 29.25  
Snow  
Snow 0.00 in 0.00 in - ()
Month to date snowfall 0.0 0.0  
Since 1 July snowfall 0.0 0.0  
Since 1 September snowfall 0.0 0.0  
Snow Depth 0.00 in    
Sea Level Pressure  
Sea Level Pressure 30.07 in    
Wind  
Wind Speed 9 mph ()    
Max Wind Speed 20 mph    
Max Gust Speed 27 mph    
Visibility 9.1 miles    
Events Rain , Thunderstorm    
T = Trace of Precipitation, MM = Missing Value Source: Averaged Metar Reports

Daily Weather History Graph

Daily Weather History Graph

Search for Another Location

Airport or City:

Astronomy

Sep. 28, 2019 Rise Set
Actual Time 6:56 AM CDT 6:49 PM CDT
Civil Twilight 6:28 AM CDT 7:17 PM CDT
Nautical Twilight 5:55 AM CDT 7:50 PM CDT
Astronomical Twilight 5:22 AM CDT 8:23 PM CDT
Moon 6:31 AM CDT (9/28) 7:16 PM CDT (9/28)
Length of Visible Light 12h 49m
Length of Day
11h 53m
Waning Crescent, 0% of the Moon is Illuminated
Sep 28
Waning Crescent
Sep 28
New
Oct 5
First Quarter
Oct 13
Full
Oct 21
Last Quarter

Hourly Weather History & Observations

Time (CDT) Temp. Dew Point Humidity Pressure Visibility Wind Dir Wind Speed Gust Speed Precip Events Conditions
12:36 AM 61.0 °F 60.1 °F 97% 29.87 in 10.0 mi NNE 5.8 mph - N/A   Mostly Cloudy
12:53 AM 61.0 °F 60.1 °F 97% 29.87 in 9.0 mi NNE 6.9 mph - N/A   Mostly Cloudy
1:02 AM 61.0 °F 60.1 °F 97% 29.88 in 9.0 mi NNE 6.9 mph - N/A   Mostly Cloudy
1:53 AM 61.0 °F 60.1 °F 97% 29.89 in 9.0 mi NNE 10.4 mph - N/A   Overcast
2:53 AM 60.1 °F 59.0 °F 96% 29.90 in 10.0 mi North 9.2 mph - N/A   Overcast
3:22 AM 59.0 °F 57.9 °F 96% 29.91 in 10.0 mi North 11.5 mph - N/A   Overcast
3:53 AM 57.9 °F 57.0 °F 97% 29.93 in 10.0 mi North 9.2 mph - N/A   Mostly Cloudy
4:02 AM 57.9 °F 57.0 °F 97% 29.93 in 10.0 mi NNE 6.9 mph - N/A   Scattered Clouds
4:53 AM 57.0 °F 55.0 °F 93% 29.96 in 10.0 mi North 11.5 mph - N/A   Clear
5:53 AM 55.9 °F 55.0 °F 97% 29.99 in 10.0 mi NE 6.9 mph - N/A   Scattered Clouds
6:34 AM 55.9 °F 55.0 °F 97% 30.01 in 10.0 mi North 10.4 mph - N/A   Mostly Cloudy
6:53 AM 55.9 °F 55.0 °F 97% 30.02 in 10.0 mi North 12.7 mph - N/A   Overcast
7:53 AM 55.9 °F 55.0 °F 97% 30.05 in 10.0 mi NNE 10.4 mph - N/A   Overcast
8:03 AM 55.9 °F 55.0 °F 97% 30.05 in 9.0 mi NNE 9.2 mph - N/A   Overcast
8:53 AM 57.9 °F 57.0 °F 97% 30.05 in 8.0 mi NE 9.2 mph - N/A   Overcast
9:09 AM 57.9 °F 57.0 °F 97% 30.06 in 9.0 mi NE 11.5 mph - N/A   Overcast
9:53 AM 60.1 °F 57.0 °F 90% 30.08 in 10.0 mi NE 10.4 mph - N/A   Overcast
10:53 AM 59.0 °F 57.0 °F 93% 30.10 in 10.0 mi NNE 10.4 mph - N/A   Overcast
11:53 AM 59.0 °F 55.9 °F 90% 30.13 in 10.0 mi NE 10.4 mph - N/A   Overcast
12:53 PM 60.1 °F 57.0 °F 90% 30.14 in 10.0 mi NNE 11.5 mph - N/A   Overcast
1:53 PM 61.0 °F 57.0 °F 87% 30.14 in 10.0 mi NE 10.4 mph - N/A   Overcast
2:25 PM 62.6 °F 57.2 °F 82% 30.14 in 10.0 mi NE 11.5 mph - N/A   Overcast
2:53 PM 60.1 °F 55.9 °F 86% 30.14 in 10.0 mi NE 16.1 mph - N/A   Overcast
3:53 PM 60.1 °F 55.9 °F 86% 30.15 in 10.0 mi NE 12.7 mph - N/A   Overcast
4:53 PM 60.1 °F 55.0 °F 83% 30.15 in 10.0 mi NE 10.4 mph - N/A   Overcast
5:53 PM 59.0 °F 55.0 °F 87% 30.16 in 10.0 mi NE 11.5 mph - N/A   Overcast
6:32 PM 59.0 °F 54.0 °F 83% 30.14 in 10.0 mi ENE 10.4 mph - N/A   Overcast
6:53 PM 59.0 °F 54.0 °F 83% 30.14 in 10.0 mi NE 9.2 mph - N/A   Overcast
7:09 PM 59.0 °F 54.0 °F 83% 30.13 in 10.0 mi ENE 11.5 mph 20.7 mph N/A   Overcast
7:53 PM 59.0 °F 54.0 °F 83% 30.17 in 10.0 mi East 8.1 mph - N/A   Overcast
8:53 PM 59.0 °F 54.0 °F 83% 30.18 in 10.0 mi East 13.8 mph - N/A   Overcast
9:53 PM 57.9 °F 53.1 °F 84% 30.21 in 10.0 mi ESE 8.1 mph - N/A   Overcast
10:23 PM 57.0 °F 52.0 °F 83% 30.19 in 10.0 mi East 11.5 mph 24.2 mph N/A Thunderstorm Overcast
10:53 PM 55.0 °F 51.1 °F 86% 30.20 in 4.0 mi ENE 10.4 mph 19.6 mph 0.03 in Rain Heavy Rain
10:57 PM 54.0 °F 51.1 °F 90% 30.20 in 2.5 mi East 11.5 mph - 0.03 in Rain Heavy Rain
11:07 PM 53.1 °F 51.1 °F 93% 30.20 in 4.0 mi East 11.5 mph - 0.10 in Rain Rain
11:53 PM 52.0 °F 52.0 °F 100% 30.19 in 5.0 mi ENE 13.8 mph - 0.23 in Rain Heavy Rain